Погода в Фараллоне

Панама     9°23′20″N   79°46′52″W
темп.,
°C
ветер,
м/с
пор.,
м/с
влажн.,
%
обл.,
%
осадки,
мм/ч
давл.,
гПа
погр.,
м
23 октября, сб
сб2301:00+25ююз338917 2.3 1010215
04:00+25ююз349016 0.3 1009246
07:00+25ю338838 0.9 1011209
10:00+27ююз2376100 0.1 1013494
13:00+27з338083 2.1 1010426
16:00+27юз337990 4.2 1008481
19:00+26ю348249 4.5 1010358
22:00+26ююв348679 0.0 1011201
24 октября, вс
вс2401:00+25ююв348734 0.8 1010185
04:00+25ю338560 0.0 1009174
07:00+25ююв338667 0.0 1011187
10:00+28ююв1273100 0.6 1013478
13:00+27в1278100 5.8 1011304
16:00+27юв237899 2.5 1009448
19:00+26ююв238295 2.8 1011301
22:00+26юв2284100 0.0 1013162
25 октября, пн
пн2501:00+26вюв218389 0.0 1012139
04:00+26вюв118274 0.0 1011197
07:00+26юв118286 0.2 1013189
10:00+28ссз11759 0.7 1014333
13:00+27зсз227990 4.2 1012474
16:00+27сз1179100 1.4 1010519
19:00+26ю1181100 3.6 1012191
22:00+26ю228527 0.4 1013184
26 октября, вт
вт2601:00+25ююз228768 0.6 1012197
04:00+25юз228573 0.4 1011275
07:00+26ююз228582 0.5 1013310
10:00+27зюз238329 0.6 1014415
13:00+27зсз348055 2.1 1011706
16:00+27зсз3479100 2.4 1009689
19:00+26з2382100 5.6 1010248
22:00+26зюз228395 2.1 1012234
27 октября, ср
ср2701:00+25юз128383 5.2 101194
04:00+25ююз128466 3.0 1010121
07:00+26юз1181100 3.4 1012272
10:00+27зюз2278100 0.8 1013468
13:00+28з337399 1.6 1010832
16:00+28зсз3368100 0.2 1008859
19:00+27зюз2270100 0.3 1010613
22:00+26ю337998 0.0 1012294